When you browse on this site, cookies collect data to enhance your experience and personalize the content and advertising you see.
Visit our Privacy Policy to learn more. By continuing to use the site, you agree to this use of cookies and data.
  • In Spain
  • List of Countries
  • For 7 days
  • Water Temperature
  • Satellite Maps
  • Weather Map
  • Weather Widgets
  • user-avatar
    Login

    Hourly Weather Sucre

    Today, 20 January, Sunday

    Time Temperature Precipitation Wind Pressure Humidity
    00:00 +13°C° 0.1 mm 2 mps 542 mmHg 83%
    01:00 +13°C° 0.1 mm 2 mps 542 mmHg 85%
    02:00 +12°C° 0 mm 2 mps 542 mmHg 87%
    03:00 +12°C° 0 mm 2 mps 542 mmHg 86%
    04:00 +12°C° 0 mm 1 mps 542 mmHg 85%
    05:00 +12°C° 0 mm 1 mps 542 mmHg 84%
    06:00 +13°C° 0 mm 1 mps 542 mmHg 83%
    07:00 +13°C° 0 mm 1 mps 542 mmHg 82%
    08:00 +14°C° 0 mm 1 mps 543 mmHg 78%
    09:00 +15°C° 0 mm 1 mps 543 mmHg 71%
    10:00 +17°C° 0 mm 2 mps 544 mmHg 64%
    11:00 +18°C° 0 mm 2 mps 544 mmHg 57%
    12:00 +20°C° 0 mm 2 mps 544 mmHg 50%
    13:00 +21°C° 0 mm 3 mps 545 mmHg 44%
    14:00 +23°C° 0 mm 4 mps 545 mmHg 37%
    15:00 +23°C° 0 mm 4 mps 545 mmHg 38%
    16:00 +23°C° 0 mm 5 mps 544 mmHg 39%
    17:00 +22°C° 0 mm 5 mps 544 mmHg 40%
    18:00 +21°C° 0 mm 4 mps 544 mmHg 47%
    19:00 +19°C° 0 mm 4 mps 543 mmHg 53%
    20:00 +18°C° 0 mm 3 mps 543 mmHg 60%
    21:00 +17°C° 0 mm 2 mps 543 mmHg 64%
    22:00 +16°C° 0 mm 2 mps 543 mmHg 68%
    23:00 +16°C° 0 mm 2 mps 543 mmHg 71%

    Tomorrow, 21 January, Monday

    Time Temperature Precipitation Wind Pressure Humidity
    00:00 +15°C° 0 mm 2 mps 543 mmHg 75%
    01:00 +15°C° 0 mm 2 mps 542 mmHg 79%
    02:00 +14°C° 0 mm 2 mps 542 mmHg 83%
    03:00 +14°C° 0 mm 1 mps 542 mmHg 85%
    04:00 +13°C° 0 mm 1 mps 541 mmHg 88%
    05:00 +12°C° 0 mm 0 mps 541 mmHg 91%
    06:00 +13°C° 0 mm 0 mps 542 mmHg 85%
    07:00 +13°C° 0 mm 0 mps 542 mmHg 79%
    08:00 +14°C° 0 mm 0 mps 543 mmHg 74%
    09:00 +18°C° 0 mm 1 mps 544 mmHg 62%
    10:00 +20°C° 0 mm 1 mps 545 mmHg 50%
    11:00 +21°C° 0 mm 2 mps 545 mmHg 38%
    12:00 +22°C° 0 mm 3 mps 545 mmHg 35%
    13:00 +24°C° 0 mm 3 mps 545 mmHg 31%
    14:00 +25°C° 0 mm 4 mps 545 mmHg 28%
    15:00 +25°C° 0 mm 5 mps 545 mmHg 30%
    16:00 +24°C° 0 mm 6 mps 545 mmHg 31%
    17:00 +23°C° 0 mm 6 mps 544 mmHg 33%
    18:00 +22°C° 0.1 mm 5 mps 544 mmHg 42%
    19:00 +20°C° 0.1 mm 4 mps 544 mmHg 52%
    20:00 +18°C° 0.1 mm 3 mps 544 mmHg 61%
    21:00 +17°C° 0.4 mm 2 mps 544 mmHg 66%
    22:00 +17°C° 0.4 mm 2 mps 544 mmHg 70%
    23:00 +16°C° 0.4 mm 1 mps 544 mmHg 75%

    Day after tomorrow, 22 January, Tuesday

    Time Temperature Precipitation Wind Pressure Humidity
    00:00 +16°C° 0.3 mm 1 mps 544 mmHg 77%
    01:00 +15°C° 0.3 mm 1 mps 543 mmHg 79%
    02:00 +15°C° 0.3 mm 1 mps 543 mmHg 81%
    03:00 +14°C° 0.1 mm 1 mps 543 mmHg 83%
    04:00 +14°C° 0.1 mm 1 mps 542 mmHg 85%
    05:00 +13°C° 0.1 mm 0 mps 542 mmHg 87%
    06:00 +13°C° 0 mm 0 mps 543 mmHg 81%
    07:00 +14°C° 0 mm 0 mps 544 mmHg 75%
    08:00 +15°C° 0 mm 0 mps 544 mmHg 69%
    09:00 +19°C° 0 mm 1 mps 545 mmHg 59%
    10:00 +19°C° 0 mm 2 mps 546 mmHg 49%
    11:00 +21°C° 0 mm 2 mps 546 mmHg 40%
    12:00 +22°C° 0 mm 3 mps 546 mmHg 37%
    13:00 +23°C° 0 mm 4 mps 546 mmHg 34%
    14:00 +25°C° 0 mm 4 mps 546 mmHg 31%
    15:00 +25°C° 0 mm 5 mps 545 mmHg 32%
    16:00 +23°C° 0 mm 5 mps 545 mmHg 33%
    17:00 +23°C° 0 mm 6 mps 544 mmHg 34%
    18:00 +22°C° 0 mm 5 mps 544 mmHg 41%
    19:00 +20°C° 0 mm 4 mps 544 mmHg 49%
    20:00 +19°C° 0 mm 3 mps 544 mmHg 56%
    21:00 +18°C° 0.1 mm 2 mps 544 mmHg 61%
    22:00 +18°C° 0.1 mm 1 mps 544 mmHg 66%
    23:00 +18°C° 0.1 mm 1 mps 544 mmHg 70%

    23 January, Wednesday

    Time Temperature Precipitation Wind Pressure Humidity
    00:00 +16°C° 0.1 mm 1 mps 544 mmHg 73%
    01:00 +15°C° 0.1 mm 0 mps 543 mmHg 76%
    02:00 +14°C° 0.1 mm 0 mps 542 mmHg 79%
    03:00 +14°C° 0.1 mm 0 mps 542 mmHg 80%
    04:00 +13°C° 0.1 mm 0 mps 542 mmHg 82%
    05:00 +13°C° 0.1 mm 0 mps 542 mmHg 83%
    06:00 +14°C° 0 mm 0 mps 543 mmHg 76%
    07:00 +15°C° 0 mm 0 mps 544 mmHg 69%
    08:00 +16°C° 0 mm 0 mps 545 mmHg 61%
    09:00 +20°C° 0.1 mm 1 mps 545 mmHg 53%
    10:00 +20°C° 0.1 mm 2 mps 546 mmHg 45%
    11:00 +23°C° 0.1 mm 2 mps 547 mmHg 37%
    12:00 +24°C° 0 mm 3 mps 547 mmHg 36%
    13:00 +25°C° 0 mm 4 mps 546 mmHg 34%
    14:00 +26°C° 0 mm 5 mps 546 mmHg 32%
    15:00 +25°C° 0 mm 5 mps 546 mmHg 33%
    16:00 +25°C° 0 mm 5 mps 545 mmHg 33%
    17:00 +25°C° 0 mm 5 mps 545 mmHg 34%
    18:00 +22°C° 0 mm 4 mps 544 mmHg 39%
    19:00 +21°C° 0 mm 3 mps 544 mmHg 44%
    20:00 +20°C° 0 mm 3 mps 544 mmHg 49%
    21:00 +19°C° 0.2 mm 2 mps 544 mmHg 53%
    22:00 +19°C° 0.2 mm 1 mps 545 mmHg 58%
    23:00 +19°C° 0.2 mm 1 mps 545 mmHg 62%

    24 January, Thursday

    Time Temperature Precipitation Wind Pressure Humidity
    00:00 +18°C° 0.1 mm 1 mps 544 mmHg 65%
    01:00 +16°C° 0.1 mm 1 mps 544 mmHg 67%
    02:00 +15°C° 0.1 mm 0 mps 543 mmHg 70%
    03:00 +14°C° 0 mm 0 mps 543 mmHg 71%
    04:00 +14°C° 0 mm 0 mps 543 mmHg 72%
    05:00 +14°C° 0 mm 0 mps 542 mmHg 74%
    06:00 +15°C° 0 mm 0 mps 543 mmHg 68%
    07:00 +16°C° 0 mm 0 mps 544 mmHg 62%
    08:00 +17°C° 0 mm 0 mps 545 mmHg 56%
    09:00 +20°C° 0 mm 1 mps 546 mmHg 50%
    10:00 +21°C° 0 mm 2 mps 546 mmHg 44%
    11:00 +23°C° 0 mm 2 mps 547 mmHg 38%
    12:00 +24°C° 0 mm 3 mps 546 mmHg 35%
    13:00 +25°C° 0 mm 4 mps 546 mmHg 32%
    14:00 +26°C° 0 mm 5 mps 546 mmHg 30%
    15:00 +26°C° 0 mm 5 mps 545 mmHg 30%
    16:00 +26°C° 0 mm 5 mps 545 mmHg 29%
    17:00 +25°C° 0 mm 5 mps 545 mmHg 29%
    18:00 +23°C° 0 mm 4 mps 544 mmHg 35%
    19:00 +21°C° 0 mm 3 mps 544 mmHg 40%
    20:00 +20°C° 0 mm 2 mps 544 mmHg 46%
    21:00 +19°C° 0 mm 2 mps 544 mmHg 50%
    22:00 +19°C° 0 mm 1 mps 544 mmHg 55%
    23:00 +18°C° 0 mm 1 mps 544 mmHg 59%

    25 January, Friday

    Time Temperature Precipitation Wind Pressure Humidity
    00:00 +18°C° 0 mm 1 mps 543 mmHg 62%
    01:00 +16°C° 0 mm 1 mps 543 mmHg 65%
    02:00 +16°C° 0 mm 1 mps 542 mmHg 68%
    03:00 +14°C° 0 mm 0 mps 542 mmHg 70%
    04:00 +14°C° 0 mm 0 mps 542 mmHg 72%
    05:00 +14°C° 0 mm 0 mps 542 mmHg 75%
    06:00 +15°C° 0 mm 0 mps 542 mmHg 70%
    07:00 +18°C° 0 mm 1 mps 543 mmHg 65%
    08:00 +18°C° 0 mm 1 mps 544 mmHg 60%
    09:00 +20°C° 0 mm 1 mps 544 mmHg 51%
    10:00 +21°C° 0 mm 2 mps 545 mmHg 43%
    11:00 +24°C° 0 mm 3 mps 545 mmHg 35%
    12:00 +25°C° 0 mm 3 mps 545 mmHg 31%
    13:00 +26°C° 0 mm 3 mps 545 mmHg 26%
    14:00 +27°C° 0 mm 4 mps 545 mmHg 22%
    15:00 +27°C° 0 mm 4 mps 544 mmHg 22%
    16:00 +27°C° 0 mm 4 mps 544 mmHg 21%
    17:00 +27°C° 0 mm 4 mps 544 mmHg 20%
    18:00 +25°C° 0 mm 4 mps 543 mmHg 26%
    19:00 +22°C° 0 mm 4 mps 543 mmHg 33%
    20:00 +20°C° 0 mm 4 mps 542 mmHg 39%
    21:00 +20°C° 0 mm 3 mps 543 mmHg 45%
    22:00 +19°C° 0 mm 2 mps 543 mmHg 51%
    23:00 +19°C° 0 mm 1 mps 543 mmHg 57%
    Show more